Find ICEYE-X45

NORAD ID: 62705 Int'l Des: 2025-009 Owner: ICEUS Country: US Constellation: iceye operational
LEOCIRCULARRETROGRADESSO

实时位置

正在加载3D地球...

关于 ICEYE-X45

正在加载描述...

即将过境

Passes for default location (London). Set your location on the main map for personalized predictions.

高度历史

Loading altitude history...

两行轨道根数

1 62705U 25009DA 26105.92597322 .00003054 00000-0 24496-3 0 9999
2 62705 97.8137 192.2008 0000944 83.0065 277.1266 15.00862405 68341
Epoch: Apr 15, 2026 • Age: 12 hours

当前状态

高度 573.4 km
速度 7.58 km/s
星下点 57.30°N, 30.92°E
发射日期 Jan 14, 2025
运行时间 1.2 years
类型 earth observation

技术详情

分类 Payload
质量 80.00 kg
干质量 80.00 kg
总质量 80.00 kg
长度 0.80 m
直径 0.60 m
跨度 1.50 m
形状 Box + pan
制造商 ICEYE
平台类型 ICEYE
阶段状态 In Orbit
所有者/国家 ICEUS/US

Most Searched